Weather History for Atqasuk Edward Burnell Sr Mem, AK

Change the Weather History Date:

Wednesday, January 1, 2014

  Actual Average (PABR) Record (PABR)
Temperature  
Mean Temperature -6 °F -11 °F  
Max Temperature 0 °F -5 °F 30 °F (1928)
Min Temperature -13 °F -18 °F -51 °F (1956)
Degree Days  
Heating Degree Days 72 76  
Month to date heating degree days 76  
Since 1 July heating degree days 8283  
Cooling Degree Days 0    
Month to date cooling degree days  
Year to date cooling degree days  
Moisture  
Dew Point -9 °F    
Average Humidity 82    
Maximum Humidity 85    
Minimum Humidity 77    
Precipitation  
Precipitation 0.00 in 0.00 in 0.16 in (1924)
Month to date precipitation 0.00  
Year to date precipitation 0.00  
Snow  
Snow 0.00 in 0.10 in 2.50 in (1938)
Month to date snowfall 0.1  
Since 1 July snowfall 23.9  
Snow Depth -    
Sea Level Pressure  
Sea Level Pressure 29.68 in    
Wind  
Wind Speed 20 mph (ENE)    
Max Wind Speed 32 mph    
Max Gust Speed 38 mph    
Visibility 4 miles    
Events Snow    
T = Trace of Precipitation, MM = Missing Value Source: NWS Daily Summary

Daily Weather History Graph

Daily Weather History Graph

Search for Another Location

Airport:

Trip Planner

Search our weather history database for the weather conditions in past years. The results will help you decide how hot, cold, wet, or windy it might be!

Date:

Astronomy

Dec. 31, 1969 Rise Set
Actual Time Sun does not rise Sun does not rise
Civil Twilight 11:28 AM AKST 3:39 PM AKST
Nautical Twilight 9:38 AM AKST 5:29 PM AKST
Astronomical Twilight 8:17 AM AKST 6:50 PM AKST
Moon 12:14 PM AKST (1/1) 3:57 PM AKST (1/1)
Length of Visible Light 4h 11m
Length of Day
0h 00m
New Moon, 0% of the Moon is Illuminated
Jan 1
New Moon
Jan 7
First Quarter
Jan 15
Full
Jan 23
Last Quarter
Jan 30
New

Hourly Weather History & Observations

Time (AKST) Temp. Windchill Dew Point Humidity Pressure Visibility Wind Dir Wind Speed Gust Speed Precip Events Conditions
12:25 AM -13.0 °F -34.3 °F -18.4 °F 77% 29.81 in 5.0 mi ENE 12.7 mph - 0.00 in Snow Light Snow
12:33 AM -13.0 °F -35.2 °F -18.4 °F 77% 29.80 in 5.0 mi ENE 13.8 mph - 0.00 in Snow Light Snow
12:44 AM -13.0 °F -34.3 °F -18.4 °F 77% 29.80 in 8.0 mi ENE 12.7 mph - 0.00 in Snow Light Snow
12:56 AM -11.9 °F -29.9 °F -17.0 °F 78% 29.83 in 3.0 mi East 9.2 mph - 0.00 in Snow Light Snow
1:04 AM -11.2 °F -31.1 °F -16.6 °F 77% 29.80 in 2.0 mi ENE 11.5 mph - 0.00 in Snow Light Snow
1:56 AM -8.9 °F -31.4 °F -13.9 °F 79% 29.81 in 2.5 mi ENE 16.1 mph - 0.00 in Snow Light Snow
2:56 AM -8.0 °F -31.6 °F -11.9 °F 83% 29.79 in 3.0 mi ENE 18.4 mph - 0.00 in   Scattered Clouds
3:12 AM -7.6 °F -31.7 °F -13.0 °F 77% 29.75 in 5.0 mi ENE 19.6 mph - N/A   Haze
3:56 AM -8.0 °F -32.2 °F -11.9 °F 83% 29.76 in 5.0 mi ENE 19.6 mph - N/A   Scattered Clouds
4:07 AM -7.6 °F -31.1 °F -11.2 °F 84% 29.73 in 4.0 mi ENE 18.4 mph - N/A   Mostly Cloudy
4:56 AM -6.9 °F -29.6 °F -10.8 °F 83% 29.75 in 4.0 mi ENE 17.3 mph - N/A   Overcast
5:15 AM -5.8 °F -28.2 °F -11.2 °F 77% 29.73 in 4.0 mi ENE 17.3 mph - N/A   Haze
5:56 AM -4.9 °F -27.6 °F -8.9 °F 83% 29.73 in 5.0 mi ENE 18.4 mph - N/A   Overcast
6:56 AM -4.0 °F -25.2 °F -8.0 °F 83% 29.73 in 4.0 mi ENE 16.1 mph - N/A   Overcast
7:56 AM -4.0 °F -25.8 °F -8.9 °F 80% 29.71 in 3.0 mi ENE 17.3 mph - N/A   Haze
8:16 AM -5.8 °F -28.8 °F -9.4 °F 84% 29.68 in 2.5 mi ENE 18.4 mph - N/A   Overcast
8:56 AM -5.8 °F -29.4 °F -9.4 °F 84% 29.66 in 1.8 mi ENE 19.6 mph - N/A   Overcast
9:16 AM -4.0 °F -28.1 °F -7.6 °F 85% 29.65 in 1.2 mi ENE 21.9 mph - 0.00 in Snow Light Snow
9:56 AM -2.9 °F -27.6 °F -6.9 °F 83% 29.66 in 1.2 mi ENE 24.2 mph - 0.00 in Snow Light Snow
10:06 AM -2.2 °F -27.1 °F -7.6 °F 78% 29.63 in 1.5 mi ENE 25.3 mph - 0.00 in Snow Light Snow
10:56 AM -2.9 °F -29.0 °F -6.9 °F 83% 29.65 in 1.5 mi ENE 27.6 mph - 0.00 in Snow Light Snow
11:38 AM -2.2 °F -27.1 °F -7.6 °F 78% 29.63 in 2.0 mi ENE 25.3 mph - 0.00 in Snow Light Snow
11:56 AM -2.2 °F -27.1 °F -7.6 °F 78% 29.63 in 2.0 mi ENE 25.3 mph - N/A Snow Light Snow
12:26 PM -2.2 °F -26.2 °F -7.6 °F 78% 29.63 in 3.0 mi ENE 23.0 mph - 0.00 in   Overcast
12:56 PM -1.8 °F -24.2 °F -6.0 °F 83% 29.65 in 5.0 mi ENE 19.6 mph - 0.00 in   Overcast
1:43 PM -2.2 °F -25.7 °F -7.6 °F 78% 29.62 in 5.0 mi ENE 21.9 mph - N/A   Scattered Clouds
1:56 PM -2.9 °F -26.1 °F -6.9 °F 83% 29.64 in 5.0 mi ENE 20.7 mph - N/A   Scattered Clouds
2:14 PM -2.2 °F -25.2 °F -7.6 °F 78% 29.62 in 7.0 mi ENE 20.7 mph - N/A   Mostly Cloudy
2:35 PM -2.2 °F -25.7 °F -7.6 °F 78% 29.61 in 9.0 mi ENE 21.9 mph - N/A   Scattered Clouds
2:56 PM -2.9 °F -27.6 °F -6.9 °F 83% 29.63 in 5.0 mi ENE 24.2 mph - N/A   Clear
3:56 PM -2.9 °F -27.6 °F -6.9 °F 83% 29.62 in 4.0 mi ENE 24.2 mph - N/A   Clear
4:28 PM -2.2 °F -27.6 °F -5.8 °F 85% 29.59 in 2.5 mi ENE 26.5 mph - N/A   Scattered Clouds
4:38 PM -2.2 °F -27.1 °F -5.8 °F 85% 29.59 in 2.5 mi ENE 25.3 mph - N/A   Mostly Cloudy
4:56 PM -1.8 °F -27.5 °F -6.0 °F 83% 29.62 in 2.5 mi ENE 27.6 mph - 0.00 in Snow Light Snow
5:07 PM -2.2 °F -27.6 °F -5.8 °F 85% 29.59 in 3.0 mi ENE 26.5 mph - N/A   Overcast
5:31 PM -2.2 °F -28.0 °F -5.8 °F 85% 29.60 in 2.5 mi ENE 27.6 mph - 0.00 in Snow Light Snow
5:56 PM -2.2 °F -28.8 °F -5.8 °F 85% 29.61 in 2.0 mi ENE 29.9 mph - N/A Snow Light Snow
6:14 PM -2.2 °F -29.2 °F -5.8 °F 85% 29.60 in 1.8 mi ENE 31.1 mph - 0.00 in Snow Light Snow
6:26 PM -0.4 °F -26.7 °F -5.8 °F 78% 29.61 in 2.0 mi ENE 31.1 mph - 0.00 in Snow Light Snow
6:56 PM -0.9 °F -27.8 °F -4.9 °F 83% 29.63 in 2.5 mi ENE 32.2 mph - 0.00 in Snow Light Snow
7:13 PM -0.4 °F -26.0 °F -5.8 °F 78% 29.61 in 3.0 mi ENE 28.8 mph - 0.00 in Snow Light Snow
7:56 PM -1.8 °F -28.3 °F -6.0 °F 83% 29.65 in 3.0 mi ENE 29.9 mph - 0.00 in   Overcast
8:31 PM -2.2 °F -29.2 °F -5.8 °F 85% 29.62 in 3.0 mi ENE 31.1 mph - 0.00 in   Overcast
8:38 PM -2.2 °F -29.2 °F -5.8 °F 85% 29.63 in 2.5 mi ENE 31.1 mph 38.0 mph 0.00 in   Overcast
8:56 PM -2.2 °F -28.4 °F -5.8 °F 85% 29.64 in 3.0 mi ENE 28.8 mph - N/A Snow Light Snow
9:18 PM -2.2 °F -28.0 °F -5.8 °F 85% 29.65 in 5.0 mi ENE 27.6 mph 35.7 mph 0.00 in   Scattered Clouds
9:56 PM -1.8 °F -26.7 °F -6.0 °F 83% 29.69 in 7.0 mi ENE 25.3 mph - 0.00 in   Scattered Clouds
10:56 PM -1.8 °F -27.5 °F -6.0 °F 83% 29.70 in 4.0 mi ENE 27.6 mph - N/A   Scattered Clouds
11:03 PM -2.2 °F -28.0 °F -5.8 °F 85% 29.68 in 4.0 mi ENE 27.6 mph - N/A   Mostly Cloudy
11:56 PM -0.9 °F -26.7 °F -4.9 °F 83% 29.72 in 6.0 mi ENE 28.8 mph - N/A   Overcast